• In Russia
  • List of Countries
  • For 7 days
  • Water Temperature
  • Satellite Maps
  • Weather Map
  • Weather Widgets
  • user-avatar
    Login

    Hourly Weather Sidi Bu-l-Abbas

    Today, 24 June, Monday

    Time Temperature Precipitation Wind Pressure Humidity
    00:00 +20°C° 0 mm 2 mps 718 mmHg 91%
    01:00 +19°C° 0 mm 2 mps 718 mmHg 92%
    02:00 +19°C° 0 mm 2 mps 718 mmHg 92%
    03:00 +19°C° 0 mm 2 mps 718 mmHg 93%
    04:00 +19°C° 0 mm 2 mps 718 mmHg 90%
    05:00 +20°C° 0 mm 2 mps 718 mmHg 87%
    06:00 +20°C° 0 mm 2 mps 718 mmHg 82%
    07:00 +21°C° 0 mm 2 mps 718 mmHg 76%
    08:00 +23°C° 0 mm 1 mps 718 mmHg 71%
    09:00 +24°C° 0 mm 1 mps 718 mmHg 65%
    10:00 +27°C° 0 mm 2 mps 719 mmHg 57%
    11:00 +29°C° 0 mm 3 mps 719 mmHg 48%
    12:00 +33°C° 0 mm 4 mps 719 mmHg 39%
    13:00 +32°C° 0 mm 5 mps 719 mmHg 41%
    14:00 +32°C° 0 mm 6 mps 718 mmHg 43%
    15:00 +30°C° 0 mm 6 mps 718 mmHg 44%
    16:00 +29°C° 0 mm 5 mps 718 mmHg 47%
    17:00 +28°C° 0 mm 4 mps 718 mmHg 50%
    18:00 +27°C° 0 mm 3 mps 718 mmHg 53%
    19:00 +26°C° 0 mm 2 mps 719 mmHg 59%
    20:00 +24°C° 0 mm 2 mps 719 mmHg 64%
    21:00 +23°C° 0 mm 1 mps 719 mmHg 70%
    22:00 +22°C° 0 mm 1 mps 719 mmHg 74%
    23:00 +22°C° 0 mm 1 mps 719 mmHg 78%

    Tomorrow, 25 June, Tuesday

    Time Temperature Precipitation Wind Pressure Humidity
    00:00 +21°C° 0 mm 1 mps 719 mmHg 82%
    01:00 +20°C° 0 mm 1 mps 719 mmHg 86%
    02:00 +20°C° 0 mm 1 mps 719 mmHg 89%
    03:00 +19°C° 0 mm 1 mps 719 mmHg 93%
    04:00 +18°C° 0 mm 0 mps 719 mmHg 90%
    05:00 +18°C° 0 mm 0 mps 719 mmHg 87%
    06:00 +19°C° 0 mm 0 mps 720 mmHg 84%
    07:00 +21°C° 0 mm 0 mps 720 mmHg 73%
    08:00 +25°C° 0 mm 1 mps 720 mmHg 61%
    09:00 +27°C° 0 mm 1 mps 721 mmHg 50%
    10:00 +30°C° 0 mm 2 mps 721 mmHg 44%
    11:00 +33°C° 0 mm 3 mps 721 mmHg 37%
    12:00 +35°C° 0 mm 4 mps 721 mmHg 31%
    13:00 +35°C° 0 mm 5 mps 720 mmHg 32%
    14:00 +35°C° 0 mm 5 mps 720 mmHg 33%
    15:00 +35°C° 0 mm 6 mps 719 mmHg 34%
    16:00 +34°C° 0 mm 5 mps 719 mmHg 38%
    17:00 +32°C° 0 mm 5 mps 719 mmHg 43%
    18:00 +30°C° 0 mm 4 mps 719 mmHg 47%
    19:00 +28°C° 0 mm 3 mps 719 mmHg 54%
    20:00 +26°C° 0 mm 2 mps 719 mmHg 61%
    21:00 +24°C° 0 mm 1 mps 720 mmHg 69%
    22:00 +24°C° 0 mm 1 mps 720 mmHg 72%
    23:00 +23°C° 0 mm 1 mps 720 mmHg 75%

    Day after tomorrow, 26 June, Wednesday

    Time Temperature Precipitation Wind Pressure Humidity
    00:00 +22°C° 0 mm 1 mps 719 mmHg 78%
    01:00 +22°C° 0 mm 1 mps 719 mmHg 83%
    02:00 +21°C° 0 mm 1 mps 719 mmHg 88%
    03:00 +20°C° 0 mm 1 mps 719 mmHg 93%
    04:00 +21°C° 0 mm 1 mps 720 mmHg 88%
    05:00 +21°C° 0 mm 1 mps 720 mmHg 82%
    06:00 +22°C° 0 mm 1 mps 720 mmHg 77%
    07:00 +26°C° 0 mm 2 mps 721 mmHg 63%
    08:00 +29°C° 0 mm 3 mps 721 mmHg 48%
    09:00 +34°C° 0 mm 4 mps 722 mmHg 34%
    10:00 +35°C° 0 mm 4 mps 722 mmHg 31%
    11:00 +36°C° 0 mm 4 mps 722 mmHg 29%
    12:00 +38°C° 0 mm 4 mps 722 mmHg 26%
    13:00 +37°C° 0 mm 4 mps 721 mmHg 29%
    14:00 +36°C° 0 mm 5 mps 721 mmHg 32%
    15:00 +36°C° 0 mm 5 mps 721 mmHg 35%
    16:00 +35°C° 0 mm 5 mps 720 mmHg 37%
    17:00 +33°C° 0 mm 4 mps 720 mmHg 40%
    18:00 +31°C° 0 mm 3 mps 720 mmHg 43%
    19:00 +29°C° 0 mm 2 mps 720 mmHg 49%
    20:00 +28°C° 0 mm 2 mps 720 mmHg 55%
    21:00 +26°C° 0 mm 1 mps 720 mmHg 61%
    22:00 +25°C° 0 mm 1 mps 720 mmHg 67%
    23:00 +24°C° 0 mm 2 mps 720 mmHg 72%

    27 June, Thursday

    Time Temperature Precipitation Wind Pressure Humidity
    00:00 +23°C° 0 mm 2 mps 720 mmHg 78%
    01:00 +21°C° 0 mm 2 mps 720 mmHg 82%
    02:00 +21°C° 0 mm 1 mps 720 mmHg 86%
    03:00 +21°C° 0 mm 1 mps 719 mmHg 91%
    04:00 +21°C° 0 mm 1 mps 720 mmHg 87%
    05:00 +22°C° 0 mm 1 mps 720 mmHg 83%
    06:00 +22°C° 0 mm 1 mps 720 mmHg 79%
    07:00 +25°C° 0 mm 1 mps 721 mmHg 65%
    08:00 +28°C° 0 mm 1 mps 721 mmHg 51%
    09:00 +31°C° 0 mm 1 mps 721 mmHg 38%
    10:00 +34°C° 0 mm 2 mps 721 mmHg 33%
    11:00 +37°C° 0 mm 3 mps 722 mmHg 28%
    12:00 +40°C° 0 mm 4 mps 722 mmHg 24%
    13:00 +40°C° 0 mm 5 mps 721 mmHg 24%
    14:00 +40°C° 0 mm 6 mps 721 mmHg 25%
    15:00 +40°C° 0 mm 6 mps 720 mmHg 26%
    16:00 +39°C° 0 mm 6 mps 720 mmHg 27%
    17:00 +37°C° 0 mm 5 mps 720 mmHg 28%
    18:00 +36°C° 0 mm 4 mps 720 mmHg 30%
    19:00 +33°C° 0 mm 3 mps 720 mmHg 38%
    20:00 +29°C° 0 mm 2 mps 720 mmHg 46%
    21:00 +25°C° 0 mm 0 mps 720 mmHg 54%
    22:00 +26°C° 0 mm 1 mps 720 mmHg 57%
    23:00 +25°C° 0 mm 1 mps 720 mmHg 60%

    28 June, Friday

    Time Temperature Precipitation Wind Pressure Humidity
    00:00 +25°C° 0 mm 1 mps 720 mmHg 63%
    01:00 +24°C° 0 mm 1 mps 719 mmHg 65%
    02:00 +23°C° 0 mm 1 mps 719 mmHg 68%
    03:00 +23°C° 0 mm 1 mps 718 mmHg 70%
    04:00 +24°C° 0 mm 1 mps 719 mmHg 67%
    05:00 +24°C° 0 mm 1 mps 719 mmHg 64%
    06:00 +23°C° 0 mm 0 mps 719 mmHg 61%
    07:00 +28°C° 0 mm 1 mps 719 mmHg 49%
    08:00 +31°C° 0 mm 2 mps 720 mmHg 37%
    09:00 +36°C° 0 mm 2 mps 720 mmHg 24%
    10:00 +38°C° 0 mm 3 mps 720 mmHg 21%
    11:00 +41°C° 0 mm 4 mps 720 mmHg 17%
    12:00 +43°C° 0 mm 5 mps 720 mmHg 13%
    13:00 +43°C° 0 mm 5 mps 720 mmHg 13%
    14:00 +44°C° 0 mm 6 mps 719 mmHg 12%
    15:00 +44°C° 0 mm 7 mps 719 mmHg 12%
    16:00 +43°C° 0 mm 7 mps 719 mmHg 13%
    17:00 +40°C° 0 mm 6 mps 719 mmHg 15%
    18:00 +38°C° 0 mm 6 mps 718 mmHg 16%
    19:00 +34°C° 0 mm 4 mps 718 mmHg 21%
    20:00 +31°C° 0 mm 3 mps 718 mmHg 26%
    21:00 +28°C° 0 mm 1 mps 718 mmHg 30%
    22:00 +27°C° 0 mm 1 mps 718 mmHg 29%
    23:00 +26°C° 0 mm 1 mps 718 mmHg 29%

    29 June, Saturday

    Time Temperature Precipitation Wind Pressure Humidity
    00:00 +26°C° 0 mm 1 mps 718 mmHg 28%
    01:00 +25°C° 0 mm 1 mps 718 mmHg 28%
    02:00 +23°C° 0 mm 0 mps 717 mmHg 28%
    03:00 +22°C° 0 mm 0 mps 717 mmHg 28%
    04:00 +23°C° 0 mm 0 mps 717 mmHg 29%
    05:00 +24°C° 0 mm 0 mps 717 mmHg 30%
    06:00 +24°C° 0 mm 0 mps 718 mmHg 30%
    07:00 +27°C° 0 mm 0 mps 718 mmHg 25%
    08:00 +32°C° 0 mm 1 mps 718 mmHg 21%
    09:00 +34°C° 0 mm 1 mps 719 mmHg 16%
    10:00 +37°C° 0 mm 2 mps 719 mmHg 14%
    11:00 +39°C° 0 mm 3 mps 719 mmHg 12%
    12:00 +41°C° 0 mm 4 mps 719 mmHg 10%
    13:00 +41°C° 0 mm 4 mps 719 mmHg 12%
    14:00 +42°C° 0 mm 5 mps 718 mmHg 13%
    15:00 +42°C° 0 mm 6 mps 718 mmHg 14%
    16:00 +40°C° 0 mm 5 mps 718 mmHg 17%
    17:00 +39°C° 0 mm 5 mps 718 mmHg 19%
    18:00 +37°C° 0 mm 5 mps 718 mmHg 21%
    19:00 +34°C° 0 mm 3 mps 718 mmHg 26%
    20:00 +30°C° 0 mm 2 mps 718 mmHg 30%
    21:00 +27°C° 0 mm 1 mps 718 mmHg 35%
    22:00 +27°C° 0 mm 1 mps 718 mmHg 35%
    23:00 +26°C° 0 mm 1 mps 718 mmHg 35%
    Show more